TimeCDT,TemperatureF,Dew PointF,Humidity,Sea Level PressureIn,VisibilityMPH,Wind Direction,Wind SpeedMPH,Gust SpeedMPH,PrecipitationIn,Events,Conditions,WindDirDegrees,DateUTC
12:56 AM,79.0,72.0,79,29.78,6.0,SE,11.5,-,N/A,,Haze,140,2013-04-17 05:56:00
1:04 AM,78.8,71.6,78,29.82,6.0,SE,15.0,-,N/A,,Haze,140,2013-04-17 06:04:00
1:25 AM,78.8,71.6,78,29.82,6.0,SSE,16.1,-,N/A,,Haze,150,2013-04-17 06:25:00
1:56 AM,79.0,72.9,81,29.78,5.0,SSE,15.0,-,N/A,,Haze,150,2013-04-17 06:56:00
2:46 AM,80.6,73.4,79,29.79,4.0,SSE,18.4,-,N/A,,Haze,150,2013-04-17 07:46:00
2:56 AM,79.9,72.9,79,29.75,4.0,SE,18.4,24.2,N/A,,Haze,140,2013-04-17 07:56:00
3:56 AM,79.9,72.9,79,29.73,4.0,SSE,19.6,27.6,N/A,,Haze,150,2013-04-17 08:56:00
4:56 AM,79.9,72.9,79,29.73,4.0,SSE,16.1,-,N/A,,Haze,150,2013-04-17 09:56:00
5:06 AM,80.6,73.4,79,29.77,5.0,SSE,17.3,24.2,N/A,,Haze,160,2013-04-17 10:06:00
5:56 AM,79.9,72.9,79,29.75,5.0,SSE,17.3,-,N/A,,Haze,160,2013-04-17 10:56:00
6:56 AM,79.9,72.9,79,29.75,5.0,SSE,13.8,-,N/A,,Haze,160,2013-04-17 11:56:00
7:56 AM,79.9,72.0,77,29.77,4.0,SSE,12.7,-,N/A,,Haze,150,2013-04-17 12:56:00
8:56 AM,81.9,70.9,69,29.78,5.0,SSE,15.0,-,N/A,,Haze,160,2013-04-17 13:56:00
9:56 AM,82.9,70.0,65,29.76,-9999.0,South,18.4,-,N/A,,Mostly Cloudy,170,2013-04-17 14:56:00
10:03 AM,82.4,71.6,70,29.79,6.0,South,15.0,-,N/A,,Haze,170,2013-04-17 15:03:00
10:40 AM,86.0,69.8,58,29.79,7.0,SSE,18.4,26.5,N/A,,Mostly Cloudy,160,2013-04-17 15:40:00
10:56 AM,86.9,70.9,59,29.75,7.0,SSE,16.1,-,N/A,,Mostly Cloudy,160,2013-04-17 15:56:00
11:25 AM,87.8,69.8,55,29.77,7.0,SSE,18.4,27.6,N/A,,Scattered Clouds,150,2013-04-17 16:25:00
11:56 AM,90.0,68.9,50,29.73,8.0,South,19.6,-,N/A,,Scattered Clouds,170,2013-04-17 16:56:00
12:56 PM,90.9,68.9,48,29.70,9.0,South,17.3,21.9,N/A,,Mostly Cloudy,180,2013-04-17 17:56:00
1:56 PM,93.9,68.0,43,29.67,9.0,South,13.8,21.9,N/A,,Partly Cloudy,180,2013-04-17 18:56:00
2:56 PM,95.0,66.9,40,29.64,10.0,SSE,12.7,19.6,N/A,,Clear,160,2013-04-17 19:56:00
3:56 PM,97.9,66.9,36,29.58,10.0,SSE,9.2,18.4,N/A,,Clear,150,2013-04-17 20:56:00
4:56 PM,99.9,63.9,31,29.55,10.0,SSE,12.7,-,N/A,,Clear,160,2013-04-17 21:56:00
5:56 PM,100.9,63.9,30,29.53,10.0,SE,16.1,-,N/A,,Clear,140,2013-04-17 22:56:00
6:56 PM,99.9,61.9,29,29.51,10.0,SE,17.3,-,N/A,,Clear,140,2013-04-17 23:56:00
7:56 PM,95.0,68.9,42,29.52,8.0,SE,24.2,28.8,N/A,,Clear,140,2013-04-18 00:56:00
8:56 PM,90.9,70.0,50,29.56,8.0,SSE,16.1,23.0,N/A,,Clear,150,2013-04-18 01:56:00
9:56 PM,86.9,68.9,55,29.60,9.0,SSE,23.0,27.6,N/A,,Clear,150,2013-04-18 02:56:00
10:56 PM,84.9,70.0,61,29.60,8.0,SSE,20.7,28.8,N/A,,Clear,150,2013-04-18 03:56:00
11:56 PM,81.9,70.9,69,29.60,7.0,SSE,20.7,-,N/A,,Clear,160,2013-04-18 04:56:00